When you browse on this site, cookies collect data to enhance your experience and personalize the content and advertising you see.
Visit our Privacy Policy to learn more. By continuing to use the site, you agree to this use of cookies and data.
  • Em Portugal
  • Lista de países
  • Para 7 dias
  • Temperatura da água
  • Mapa do tempo
  • Widgets de tempo
  • user-avatar
    Iniciar Sessão

    Previsão horária em Velikaya Raevka

    Hoje, 18 Setembro, Quarta-feira

    Tempo Temperatura Precipitação Vento Pressão Humidade
    00:00 +6°C° 0.1 mm 4 m/s 731 mmHg 90%
    01:00 +6°C° 0.1 mm 4 m/s 731 mmHg 90%
    02:00 +7°C° 0 mm 3 m/s 731 mmHg 92%
    03:00 +6°C° 1 mm 4 m/s 731 mmHg 91%
    04:00 +5°C° 1 mm 5 m/s 731 mmHg 91%
    05:00 +4°C° 1 mm 6 m/s 731 mmHg 91%
    06:00 +4°C° 0.2 mm 6 m/s 731 mmHg 89%
    07:00 +4°C° 0.2 mm 6 m/s 732 mmHg 88%
    08:00 +4°C° 0.2 mm 6 m/s 732 mmHg 87%
    09:00 +5°C° 0 mm 6 m/s 733 mmHg 84%
    10:00 +5°C° 0 mm 6 m/s 733 mmHg 81%
    11:00 +7°C° 0 mm 6 m/s 734 mmHg 78%
    12:00 +7°C° 0.1 mm 6 m/s 734 mmHg 78%
    13:00 +7°C° 0.1 mm 6 m/s 734 mmHg 79%
    14:00 +6°C° 0.1 mm 7 m/s 735 mmHg 80%
    15:00 +8°C° 0.1 mm 6 m/s 735 mmHg 78%
    16:00 +8°C° 0.1 mm 6 m/s 736 mmHg 76%
    17:00 +9°C° 0.1 mm 5 m/s 737 mmHg 74%
    18:00 +8°C° 0 mm 5 m/s 737 mmHg 78%
    19:00 +7°C° 0 mm 5 m/s 738 mmHg 83%
    20:00 +6°C° 0 mm 5 m/s 738 mmHg 87%
    21:00 +6°C° 0.1 mm 5 m/s 738 mmHg 89%
    22:00 +6°C° 0.1 mm 5 m/s 739 mmHg 91%
    23:00 +6°C° 0.1 mm 5 m/s 739 mmHg 93%

    Amanhã, 19 Setembro, Quinta-feira

    Tempo Temperatura Precipitação Vento Pressão Humidade
    00:00 +6°C° 0 mm 5 m/s 739 mmHg 94%
    01:00 +6°C° 0 mm 5 m/s 740 mmHg 95%
    02:00 +5°C° 0 mm 4 m/s 740 mmHg 96%
    03:00 +6°C° 0 mm 5 m/s 740 mmHg 94%
    04:00 +6°C° 0 mm 5 m/s 741 mmHg 93%
    05:00 +6°C° 0 mm 5 m/s 741 mmHg 92%
    06:00 +6°C° 0.2 mm 5 m/s 741 mmHg 91%
    07:00 +6°C° 0.2 mm 5 m/s 742 mmHg 90%
    08:00 +6°C° 0.2 mm 5 m/s 742 mmHg 90%
    09:00 +7°C° 0 mm 5 m/s 743 mmHg 88%
    10:00 +7°C° 0 mm 5 m/s 743 mmHg 86%
    11:00 +7°C° 0 mm 4 m/s 744 mmHg 84%
    12:00 +8°C° 0 mm 4 m/s 744 mmHg 80%
    13:00 +10°C° 0 mm 4 m/s 744 mmHg 75%
    14:00 +10°C° 0 mm 4 m/s 744 mmHg 71%
    15:00 +11°C° 0 mm 4 m/s 744 mmHg 70%
    16:00 +11°C° 0 mm 3 m/s 744 mmHg 70%
    17:00 +11°C° 0 mm 3 m/s 744 mmHg 69%
    18:00 +10°C° 0.1 mm 3 m/s 744 mmHg 75%
    19:00 +9°C° 0.1 mm 3 m/s 744 mmHg 81%
    20:00 +7°C° 0.1 mm 3 m/s 744 mmHg 87%
    21:00 +7°C° 0 mm 3 m/s 744 mmHg 88%
    22:00 +7°C° 0 mm 3 m/s 744 mmHg 89%
    23:00 +5°C° 0 mm 3 m/s 744 mmHg 90%

    Depois de amanhã, 20 Setembro, Sexta-feira

    Tempo Temperatura Precipitação Vento Pressão Humidade
    00:00 +5°C° 0.1 mm 4 m/s 744 mmHg 91%
    01:00 +5°C° 0.1 mm 4 m/s 744 mmHg 93%
    02:00 +5°C° 0.1 mm 4 m/s 744 mmHg 94%
    03:00 +5°C° 0 mm 5 m/s 744 mmHg 94%
    04:00 +5°C° 0 mm 5 m/s 744 mmHg 94%
    05:00 +3°C° 0 mm 5 m/s 744 mmHg 94%
    06:00 +5°C° 0 mm 5 m/s 744 mmHg 91%
    07:00 +4°C° 0 mm 6 m/s 745 mmHg 87%
    08:00 +4°C° 0 mm 6 m/s 745 mmHg 84%
    09:00 +5°C° 0 mm 6 m/s 745 mmHg 77%
    10:00 +7°C° 0 mm 6 m/s 746 mmHg 70%
    11:00 +8°C° 0 mm 6 m/s 746 mmHg 63%
    12:00 +9°C° 0.1 mm 6 m/s 746 mmHg 59%
    13:00 +9°C° 0.1 mm 7 m/s 746 mmHg 55%
    14:00 +10°C° 0.1 mm 7 m/s 746 mmHg 52%
    15:00 +9°C° 0.1 mm 6 m/s 746 mmHg 55%
    16:00 +8°C° 0.1 mm 5 m/s 746 mmHg 59%
    17:00 +8°C° 0.1 mm 4 m/s 746 mmHg 63%
    18:00 +7°C° 0 mm 4 m/s 747 mmHg 68%
    19:00 +5°C° 0 mm 3 m/s 747 mmHg 74%
    20:00 +4°C° 0 mm 3 m/s 747 mmHg 79%
    21:00 +4°C° 0 mm 3 m/s 748 mmHg 81%
    22:00 +4°C° 0 mm 2 m/s 748 mmHg 83%
    23:00 +4°C° 0 mm 2 m/s 748 mmHg 85%

    21 Setembro, Sábado

    Tempo Temperatura Precipitação Vento Pressão Humidade
    00:00 +3°C° 0 mm 2 m/s 748 mmHg 85%
    01:00 +3°C° 0 mm 2 m/s 748 mmHg 86%
    02:00 +3°C° 0 mm 2 m/s 748 mmHg 86%
    03:00 +3°C° 0 mm 2 m/s 748 mmHg 86%
    04:00 +3°C° 0 mm 2 m/s 748 mmHg 86%
    05:00 +3°C° 0 mm 2 m/s 748 mmHg 86%
    06:00 +3°C° 0 mm 3 m/s 748 mmHg 82%
    07:00 +4°C° 0 mm 3 m/s 748 mmHg 78%
    08:00 +7°C° 0 mm 3 m/s 748 mmHg 74%
    09:00 +6°C° 0 mm 4 m/s 747 mmHg 74%
    10:00 +6°C° 0 mm 5 m/s 747 mmHg 75%
    11:00 +7°C° 0 mm 5 m/s 747 mmHg 75%
    12:00 +7°C° 0.2 mm 5 m/s 747 mmHg 79%
    13:00 +8°C° 0.2 mm 6 m/s 746 mmHg 83%
    14:00 +8°C° 0.2 mm 6 m/s 746 mmHg 86%
    15:00 +9°C° 0 mm 5 m/s 746 mmHg 85%
    16:00 +12°C° 0 mm 5 m/s 745 mmHg 84%
    17:00 +13°C° 0 mm 5 m/s 745 mmHg 82%
    18:00 +12°C° 0 mm 4 m/s 745 mmHg 84%
    19:00 +12°C° 0 mm 4 m/s 745 mmHg 86%
    20:00 +11°C° 0 mm 4 m/s 745 mmHg 87%
    21:00 +11°C° 0 mm 4 m/s 745 mmHg 89%
    22:00 +10°C° 0 mm 4 m/s 745 mmHg 91%
    23:00 +10°C° 0 mm 4 m/s 745 mmHg 93%

    22 Setembro, Domingo

    Tempo Temperatura Precipitação Vento Pressão Humidade
    00:00 +10°C° 0 mm 4 m/s 745 mmHg 94%
    01:00 +9°C° 0 mm 5 m/s 745 mmHg 94%
    02:00 +9°C° 0 mm 5 m/s 745 mmHg 94%
    03:00 +9°C° 0 mm 5 m/s 745 mmHg 93%
    04:00 +9°C° 0 mm 5 m/s 744 mmHg 92%
    05:00 +9°C° 0 mm 5 m/s 744 mmHg 90%
    06:00 +9°C° 0 mm 5 m/s 744 mmHg 89%
    07:00 +10°C° 0 mm 5 m/s 744 mmHg 88%
    08:00 +10°C° 0 mm 5 m/s 744 mmHg 87%
    09:00 +12°C° 0 mm 5 m/s 745 mmHg 82%
    10:00 +13°C° 0 mm 4 m/s 745 mmHg 77%
    11:00 +15°C° 0 mm 4 m/s 745 mmHg 71%
    12:00 +15°C° 0 mm 4 m/s 745 mmHg 69%
    13:00 +17°C° 0 mm 3 m/s 745 mmHg 66%
    14:00 +18°C° 0 mm 3 m/s 745 mmHg 64%
    15:00 +17°C° 0 mm 3 m/s 745 mmHg 66%
    16:00 +17°C° 0 mm 2 m/s 745 mmHg 69%
    17:00 +16°C° 0 mm 2 m/s 745 mmHg 72%
    18:00 +14°C° 0 mm 2 m/s 745 mmHg 73%
    19:00 +12°C° 0 mm 3 m/s 745 mmHg 74%
    20:00 +10°C° 0 mm 3 m/s 745 mmHg 75%
    21:00 +10°C° 0 mm 3 m/s 745 mmHg 67%
    22:00 +9°C° 0 mm 3 m/s 745 mmHg 60%
    23:00 +8°C° 0 mm 3 m/s 745 mmHg 52%

    23 Setembro, Segunda-feira

    Tempo Temperatura Precipitação Vento Pressão Humidade
    00:00 +7°C° 0 mm 4 m/s 745 mmHg 52%
    01:00 +7°C° 0 mm 4 m/s 745 mmHg 52%
    02:00 +7°C° 0 mm 4 m/s 745 mmHg 52%
    03:00 +7°C° 0 mm 4 m/s 745 mmHg 53%
    04:00 +7°C° 0 mm 4 m/s 745 mmHg 53%
    05:00 +7°C° 0 mm 4 m/s 744 mmHg 54%
    06:00 +7°C° 0 mm 4 m/s 744 mmHg 55%
    07:00 +7°C° 0 mm 4 m/s 744 mmHg 56%
    08:00 +7°C° 0 mm 4 m/s 744 mmHg 57%
    09:00 +8°C° 0 mm 5 m/s 744 mmHg 57%
    10:00 +8°C° 0 mm 5 m/s 744 mmHg 58%
    11:00 +9°C° 0 mm 5 m/s 744 mmHg 59%
    12:00 +10°C° 0 mm 5 m/s 743 mmHg 58%
    13:00 +12°C° 0 mm 5 m/s 743 mmHg 58%
    14:00 +12°C° 0 mm 5 m/s 742 mmHg 58%
    15:00 +12°C° 0 mm 5 m/s 742 mmHg 60%
    16:00 +11°C° 0 mm 4 m/s 742 mmHg 62%
    17:00 +11°C° 0 mm 4 m/s 742 mmHg 63%
    18:00 +10°C° 0 mm 4 m/s 742 mmHg 65%
    19:00 +7°C° 0 mm 4 m/s 742 mmHg 67%
    20:00 +6°C° 0 mm 4 m/s 742 mmHg 69%
    21:00 +5°C° 0 mm 4 m/s 742 mmHg 69%
    22:00 +5°C° 0 mm 4 m/s 742 mmHg 69%
    23:00 +4°C° 0 mm 4 m/s 742 mmHg 70%
    Mostrar mais